Weather History for KPIT - October, 2011

Change the Weather History Date:

Saturday, October 1, 2011

  Actual Average Record
Temperature  
Mean Temperature 47 °F 58 °F  
Max Temperature 50 °F 68 °F 89 °F (1889)
Min Temperature 43 °F 48 °F 30 °F (1899)
Degree Days  
Heating Degree Days 18 8  
Month to date heating degree days 18 8  
Since 1 July heating degree days 104 122  
Cooling Degree Days 0 1  
Month to date cooling degree days 0 1  
Year to date cooling degree days 1009 729  
Moisture  
Dew Point 41 °F    
Average Humidity 85    
Maximum Humidity 93    
Minimum Humidity 76    
Precipitation  
Precipitation 0.32 in 0.08 in 1.50 in (1915)
Month to date precipitation 0.32 0.08  
Year to date precipitation 33.94 29.90  
Snow  
Snow 0.00 in 0.00 in 0.00 in (2002)
Month to date snowfall 0.0 0.0  
Since 1 July snowfall 0.0 0.0  
Snow Depth 0.00 in    
Sea Level Pressure  
Sea Level Pressure 29.93 in    
Wind  
Wind Speed 9 mph (WNW)    
Max Wind Speed 22 mph    
Max Gust Speed 29 mph    
Visibility 8 miles    
Events Rain    
T = Trace of Precipitation, MM = Missing Value Source: NWS Daily Summary

Daily Weather History Graph

Daily Weather History Graph

Search for Another Location

Airport or City:

Trip Planner

Search our weather history database for the weather conditions in past years. The results will help you decide how hot, cold, wet, or windy it might be!

Date:

Astronomy

Oct. 01, 2011 Rise Set
Actual Time 7:17 AM EDT 7:03 PM EDT
Civil Twilight 6:49 AM EDT 7:30 PM EDT
Nautical Twilight 6:18 AM EDT 8:02 PM EDT
Astronomical Twilight 5:46 AM EDT 8:34 PM EDT
Moon 12:22 PM EDT (10/1) 9:58 PM EDT (10/1)
Length of Visible Light 12h 40m
Length of Day
11h 46m
Waxing Crescent, 24% of the Moon is Illuminated
Oct 1
Waxing Crescent
Oct 3
First Quarter
Oct 11
Full
Oct 19
Last Quarter
Oct 26
New

Hourly Weather History & Observations

Time (EDT) Temp. Windchill Dew Point Humidity Pressure Visibility Wind Dir Wind Speed Gust Speed Precip Events Conditions
12:51 AM 46.0 °F 41.4 °F 39.9 °F 79% 29.84 in 10.0 mi West 9.2 mph - N/A   Overcast
1:51 AM 45.0 °F 41.8 °F 39.0 °F 80% 29.84 in 10.0 mi West 5.8 mph - N/A   Overcast
2:51 AM 45.0 °F 41.2 °F 37.9 °F 76% 29.85 in 10.0 mi WSW 6.9 mph - N/A   Overcast
3:08 AM 44.6 °F 39.7 °F 37.4 °F 76% 29.82 in 10.0 mi West 9.2 mph - N/A   Mostly Cloudy
3:51 AM 44.1 °F 39.5 °F 39.0 °F 82% 29.85 in 10.0 mi West 8.1 mph - N/A   Overcast
4:51 AM 44.1 °F 40.8 °F 39.0 °F 82% 29.86 in 10.0 mi WSW 5.8 mph - N/A   Overcast
5:39 AM 44.6 °F 40.2 °F 39.2 °F 81% 29.82 in 10.0 mi WSW 8.1 mph - N/A   Overcast
5:51 AM 44.1 °F 40.1 °F 39.9 °F 85% 29.86 in 10.0 mi West 6.9 mph - N/A   Overcast
6:51 AM 44.1 °F 39.0 °F 39.0 °F 82% 29.88 in 10.0 mi West 9.2 mph - N/A   Overcast
7:51 AM 43.0 °F 38.8 °F 39.0 °F 86% 29.89 in 10.0 mi WSW 6.9 mph - N/A   Overcast
8:51 AM 44.1 °F 42.5 °F 39.9 °F 85% 29.90 in 10.0 mi WSW 3.5 mph - N/A   Overcast
9:40 AM 42.8 °F 39.3 °F 39.2 °F 87% 29.88 in 1.0 mi WSW 5.8 mph - 0.01 in Rain Light Rain
9:51 AM 43.0 °F 39.5 °F 39.9 °F 89% 29.93 in 1.0 mi WSW 5.8 mph - 0.03 in Rain Light Rain
10:27 AM 44.6 °F 42.2 °F 41.0 °F 87% 29.89 in 4.0 mi SW 4.6 mph - 0.05 in Rain Light Rain
10:51 AM 44.1 °F 40.1 °F 41.0 °F 89% 29.94 in 4.0 mi WSW 6.9 mph - 0.06 in Rain Light Rain
11:26 AM 44.6 °F 42.2 °F 41.0 °F 87% 29.91 in 3.0 mi SW 4.6 mph - 0.01 in Rain Light Rain
11:51 AM 44.1 °F 40.1 °F 41.0 °F 89% 29.95 in 3.0 mi WSW 6.9 mph - 0.03 in Rain Light Rain
12:51 PM 45.0 °F 43.5 °F 43.0 °F 93% 29.95 in 3.0 mi West 3.5 mph - 0.06 in Rain Light Rain
1:51 PM 46.9 °F - 45.0 °F 93% 29.94 in 3.0 mi WNW 6.9 mph - 0.07 in Rain Light Rain
2:51 PM 50.0 °F - 46.0 °F 86% 29.94 in 3.0 mi NNW 16.1 mph - 0.06 in Rain Light Rain
3:42 PM 48.2 °F - 44.6 °F 87% 29.92 in 3.0 mi NNW 15.0 mph - 0.01 in Rain Light Rain
3:51 PM 48.9 °F - 45.0 °F 86% 29.95 in 10.0 mi NNW 15.0 mph - 0.01 in Rain Light Rain
4:51 PM 48.9 °F - 44.1 °F 83% 29.96 in 10.0 mi NNW 17.3 mph 25.3 mph 0.00 in   Overcast
5:51 PM 46.9 °F - 43.0 °F 86% 29.98 in 10.0 mi NNW 17.3 mph - N/A   Overcast
6:37 PM 46.4 °F 39.0 °F 42.8 °F 87% 29.96 in 10.0 mi NNW 19.6 mph 27.6 mph N/A   Overcast
6:51 PM 46.0 °F 39.3 °F 42.1 °F 86% 30.01 in 8.0 mi NNW 16.1 mph 24.2 mph 0.00 in   Light Drizzle
7:23 PM 46.4 °F 39.8 °F 41.0 °F 81% 29.97 in 10.0 mi NNW 16.1 mph - 0.00 in   Overcast
7:51 PM 46.0 °F 39.3 °F 41.0 °F 83% 30.02 in 10.0 mi North 16.1 mph 24.2 mph 0.00 in   Overcast
8:13 PM 46.4 °F 39.2 °F 39.2 °F 76% 29.98 in 10.0 mi North 18.4 mph 23.0 mph N/A   Overcast
8:51 PM 46.0 °F 39.9 °F 39.9 °F 79% 30.03 in 10.0 mi North 13.8 mph - N/A   Overcast
9:12 PM 46.4 °F 40.7 °F 39.2 °F 76% 30.00 in 10.0 mi NNW 12.7 mph 20.7 mph N/A   Overcast
9:51 PM 46.0 °F 41.4 °F 39.0 °F 76% 30.03 in 10.0 mi NNW 9.2 mph - N/A   Mostly Cloudy
10:51 PM 45.0 °F 40.1 °F 39.9 °F 82% 30.03 in 10.0 mi NW 9.2 mph - N/A   Overcast
11:51 PM 45.0 °F 40.1 °F 39.0 °F 80% 30.01 in 10.0 mi NW 9.2 mph - N/A   Overcast